Location: Molveno
(46.1500°N, 10.9667°E)
Time: 17:03:37
(UTC+00:00)

GP-B - Pass Details

Date: 05 July 2020
Orbit: 631 x 635 km, 89.8° (Epoch: 11 August)

Event Time Altitude Azimuth Distance (km) Brightness Sun altitude
Rises 22:03:58 0° 9° (N) 2,942 7.6 -19.0°
Reaches altitude 10° 22:06:22 10° 19° (NNE) 2,028 6.4 -19.1°
Maximum altitude 22:10:27 34° 85° (E) 1,040 4.1 -19.3°
Enters shadow 22:11:26 31° 113° (ESE) 1,120 4.0 -19.4°
